Погода в Мазунине

Россия / Удмуртская Республика     56°18′51″N   53°59′41″E
темп.,
°C
ветер,
м/с
пор.,
м/с
влажн.,
%
обл.,
%
осадки,
мм/ч
давл.,
гПа
погр.,
м
15 апреля, чт
чт1501:00+9ю227873 0.0 102523
04:00+8ю228671 0.0 102528
07:00+8ю258421 0.0 1024102
10:00+14ю35623 0.0 1023332
13:00+17ююз46520 0.0 1022786
16:00+19юз464617 0.0 10201299
19:00+15ююз22605 0.0 101914
22:00+12з11695 0.0 102010
16 апреля, пт
пт1601:00+9ссв37864 0.0 1020144
04:00+6св6129027 0.0 1023384
07:00+5св61285100 0.0 1024501
10:00+7св5969100 0.0 1025578
13:00+10св576696 0.0 1025773
16:00+10всв676545 0.0 1025979
19:00+8всв35732 0.0 1025112
22:00+5ссв36820 0.0 1026128
17 апреля, сб
сб1701:00+3ссв49730 0.0 1027230
04:00+1ссв39750 0.0 1027198
07:00+2св410694 0.0 1028310
10:00+8св57435 0.0 1028816
13:00+10св45385 0.0 10271340
16:00+11ссв44375 0.0 10261499
19:00+8с33543 0.0 102665
22:00+5ссз22625 0.0 102610
18 апреля, вс
вс1801:00+4ссз22715 0.0 102514
04:00+2ссз22773 0.0 102516
07:00+4сз26740 0.0 1024183
10:00+8ссз46555 0.0 1024950
13:00+8ссв7756100 0.0 10251331
16:00+8ссв674153 0.0 10261797
19:00+5ссв610420 0.0 1028724
22:00+2св612482 0.0 1030493
19 апреля, пн
пн1901:000всв511605 0.0 1031450
04:00−1всв511640 0.0 1033443
07:000всв69540 0.0 1035774
10:00+3в68310 0.0 10351432
13:00+5в67280 0.0 10341619
16:00+6в56275 0.0 10341692
19:00+4всв36400 0.0 1033167
22:000всв37535 0.0 1034135